| time (UTC) | temp C | wind direction | speed KPH | gust KPH | rain 1hr cm | rain 24hr cm | rain mn cm | humidity % | barometer mb |
| 20260902115519 | 24 | 0.0 | 1.6 | 0.00 | 9.96 | 0.00 | 89 | 1017.0 | |
| 20260902114518 | 24 | 0.0 | 1.6 | 0.00 | 9.96 | 0.00 | 89 | 1017.0 | |
| 20260902113518 | 23 | 0.0 | 1.6 | 0.00 | 9.96 | 0.00 | 90 | 1017.0 | |
| 20260902112519 | 23 | 0.0 | 0.0 | 0.00 | 9.96 | 0.00 | 90 | 1016.9 | |
| 20260902111518 | 24 | 0.0 | 1.6 | 0.00 | 9.96 | 0.00 | 90 | 1016.6 | |
| 20260902110519 | 24 | 0.0 | 0.0 | 0.00 | 9.96 | 0.00 | 89 | 1016.7 | |
| 20260902105538 | 24 | 0.0 | 0.0 | 0.00 | 9.96 | 0.00 | 89 | 1016.6 | |
| 20260902104519 | 24 | 0.0 | 1.6 | 0.00 | 9.96 | 0.00 | 89 | 1016.5 | |
| 20260902103559 | 24 | 0.0 | 0.0 | 0.00 | 9.96 | 0.00 | 89 | 1016.5 | |
| 20260902102558 | 24 | 0.0 | 1.6 | 0.00 | 9.96 | 0.00 | 89 | 1016.5 | |
| 20260902101519 | 24 | 0.0 | 1.6 | 0.00 | 9.96 | 0.00 | 89 | 1016.4 | |
| 20260902100539 | 24 | 0.0 | 1.6 | 0.00 | 9.96 | 0.00 | 89 | 1016.4 | |
| 20260902095538 | 25 | 0.0 | 1.6 | 0.00 | 9.96 | 0.00 | 89 | 1016.4 | |
| 20260902094518 | 25 | 0.0 | 0.0 | 0.00 | 9.96 | 0.00 | 88 | 1016.3 | |
| 20260902093519 | 25 | 0.0 | 1.6 | 0.00 | 9.96 | 0.00 | 88 | 1016.4 | |
| 20260902092519 | 25 | 0.0 | 1.6 | 0.00 | 9.96 | 0.00 | 88 | 1016.3 | |
| 20260902091519 | 25 | 0.0 | 1.6 | 0.00 | 9.96 | 0.00 | 87 | 1016.4 | |
| 20260902090518 | 25 | 0.0 | 1.6 | 0.00 | 9.96 | 0.00 | 87 | 1016.3 | |
| 20260902085518 | 25 | 0.0 | 1.6 | 0.00 | 9.96 | 0.00 | 87 | 1016.3 | |
| 20260902084519 | 25 | 0.0 | 1.6 | 0.00 | 9.96 | 0.00 | 87 | 1016.3 | |
| 20260902083539 | 25 | 0.0 | 1.6 | 0.00 | 9.96 | 0.00 | 88 | 1016.2 | |
| 20260902082519 | 25 | 0.0 | 1.6 | 0.00 | 9.96 | 0.00 | 88 | 1016.4 | |
| 20260902081518 | 25 | 0.0 | 3.2 | 0.00 | 9.96 | 0.00 | 88 | 1016.4 | |
| 20260902080519 | 25 | 0.0 | 1.6 | 0.00 | 10.69 | 0.00 | 89 | 1016.2 | |
| 20260902075518 | 25 | 0.0 | 1.6 | 0.00 | 10.69 | 0.00 | 90 | 1016.3 | |
| 20260902074518 | 25 | 0.0 | 1.6 | 0.00 | 10.69 | 0.00 | 90 | 1016.4 | |
| 20260902073520 | 25 | 0.0 | 1.6 | 0.00 | 10.69 | 0.00 | 90 | 1016.2 | |
| 20260902072519 | 25 | 0.0 | 1.6 | 0.00 | 10.69 | 0.00 | 90 | 1016.1 | |
| 20260902071518 | 25 | 0.0 | 1.6 | 0.00 | 10.69 | 0.00 | 90 | 1016.0 | |
| 20260902070519 | 25 | 0.0 | 1.6 | 0.00 | 10.69 | 0.00 | 91 | 1016.1 | |
| 20260902065518 | 25 | 0.0 | 0.0 | 0.00 | 10.69 | 0.00 | 90 | 1016.1 | |
| 20260902064518 | 25 | 0.0 | 0.0 | 0.00 | 10.69 | 0.00 | 90 | 1016.2 | |
| 20260902063539 | 25 | 0.0 | 1.6 | 0.00 | 10.69 | 0.00 | 90 | 1016.2 | |
| 20260902062518 | 25 | 0.0 | 1.6 | 0.00 | 10.69 | 0.00 | 89 | 1016.1 | |
| 20260902061518 | 26 | 0.0 | 1.6 | 0.00 | 10.69 | 0.00 | 89 | 1016.3 | |
| 20260902060519 | 26 | 0.0 | 1.6 | 0.00 | 10.69 | 0.00 | 89 | 1016.3 | |
| 20260902055518 | 26 | 0.0 | 1.6 | 0.00 | 10.69 | 0.00 | 88 | 1016.2 | |
| 20260902054519 | 26 | 0.0 | 1.6 | 0.00 | 10.69 | 0.00 | 88 | 1016.2 | |
| 20260902053519 | 26 | 0.0 | 0.0 | 0.00 | 10.69 | 0.00 | 88 | 1016.2 | |
| 20260902052519 | 26 | 0.0 | 1.6 | 0.00 | 10.69 | 0.00 | 88 | 1016.1 | |
| 20260902051518 | 26 | 0.0 | 3.2 | 0.00 | 10.69 | 0.00 | 87 | 1016.0 | |
| 20260902050518 | 26 | 0.0 | 3.2 | 0.00 | 10.69 | 0.00 | 87 | 1016.0 | |
| 20260902045519 | 26 | 0.0 | 1.6 | 0.00 | 10.69 | 0.00 | 86 | 1015.9 | |
| 20260902044519 | 26 | 0.0 | 1.6 | 0.00 | 10.69 | 0.00 | 86 | 1015.9 | |
| 20260902043519 | 27 | 0.0 | 3.2 | 0.00 | 10.69 | 0.00 | 85 | 1015.8 | |
| 20260902042518 | 27 | 0.0 | 3.2 | 0.00 | 10.69 | 0.00 | 85 | 1015.7 | |
| 20260902041518 | 27 | 0.0 | 3.2 | 0.00 | 10.69 | 0.00 | 85 | 1015.7 | |
| 20260902040538 | 27 | 0.0 | 1.6 | 0.00 | 10.69 | 0.00 | 85 | 1015.7 | |
| 20260902035539 | 27 | 0.0 | 3.2 | 0.00 | 10.69 | 10.69 | 84 | 1015.7 | |
| 20260902034559 | 27 | 0.0 | 1.6 | 0.00 | 10.69 | 10.69 | 84 | 1015.8 | |
| 20260902033520 | 27 | 0.0 | 1.6 | 0.00 | 10.69 | 10.69 | 85 | 1015.8 | |
| 20260902032519 | 27 | 0.0 | 3.2 | 0.00 | 13.13 | 10.69 | 85 | 1015.8 | |
| 20260902031519 | 27 | 0.0 | 3.2 | 0.00 | 13.13 | 10.69 | 86 | 1015.9 | |
| 20260902030539 | 27 | 0.0 | 0.0 | 0.00 | 13.13 | 10.69 | 86 | 1016.0 | |
| 20260902025519 | 27 | 0.0 | 0.0 | 0.00 | 13.13 | 10.69 | 86 | 1015.8 | |
| 20260902024519 | 27 | 0.0 | 0.0 | 0.00 | 14.86 | 10.69 | 85 | 1015.8 | |
| 20260902023519 | 27 | 0.0 | 1.6 | 0.00 | 17.32 | 10.69 | 85 | 1015.7 | |
| 20260902022519 | 27 | 0.0 | 1.6 | 0.00 | 18.21 | 10.69 | 85 | 1015.9 | |
| 20260902021518 | 27 | 0.0 | 1.6 | 0.00 | 20.02 | 10.69 | 85 | 1015.8 | |
| 20260902020519 | 27 | 0.0 | 0.0 | 0.00 | 2.57 | 10.69 | 85 | 1015.8 | |
| 20260902015519 | 27 | 0.0 | 0.0 | 0.00 | 3.07 | 10.69 | 85 | 1015.9 | |
| 20260902014519 | 28 | 0.0 | 0.0 | 0.00 | 3.30 | 10.69 | 85 | 1015.9 | |
| 20260902013518 | 28 | 0.0 | 0.0 | 0.00 | 3.30 | 10.69 | 85 | 1015.9 | |
| 20260902012519 | 27 | 0.0 | 1.6 | 0.00 | 3.30 | 10.69 | 86 | 1015.8 |